Time,TemperatureF,DewpointF,PressureIn,WindDirection,WindDirectionDegrees,WindSpeedMPH,WindSpeedGustMPH,Humidity,HourlyPrecipIn,Conditions,Clouds,dailyrainin,SoftwareType,DateUTC
2013-09-16 00:03:00,58.8,54.0,30.00,SSW,194,1.0,-999.0,85,-99.99,,,0.00,weatherlink.com 1.10,2013-09-16 04:03:00,
2013-09-16 00:18:00,58.6,55.0,30.01,SSW,194,1.0,-999.0,86,-99.99,,,0.00,weatherlink.com 1.10,2013-09-16 04:18:00,
2013-09-16 00:33:00,58.4,55.0,30.01,SSW,194,0.0,-999.0,87,-99.99,,,0.00,weatherlink.com 1.10,2013-09-16 04:33:00,
2013-09-16 00:48:00,58.4,55.0,30.00,SSW,194,0.0,-999.0,88,-99.99,,,0.00,weatherlink.com 1.10,2013-09-16 04:48:00,
2013-09-16 01:03:00,58.5,55.0,30.00,SSW,194,2.0,-999.0,88,-99.99,,,0.00,weatherlink.com 1.10,2013-09-16 05:03:00,
2013-09-16 01:18:00,58.6,55.0,30.00,SSW,194,3.0,-999.0,89,-99.99,,,0.00,weatherlink.com 1.10,2013-09-16 05:18:00,
2013-09-16 01:33:00,58.5,55.0,30.00,SSW,194,5.0,-999.0,89,-99.99,,,0.00,weatherlink.com 1.10,2013-09-16 05:33:00,
2013-09-16 01:48:00,58.7,56.0,29.99,South,190,5.0,-999.0,90,-99.99,,,0.00,weatherlink.com 1.10,2013-09-16 05:48:00,
2013-09-16 02:03:00,58.9,56.0,29.99,SSW,194,0.0,-999.0,90,-99.99,,,0.00,weatherlink.com 1.10,2013-09-16 06:03:00,
2013-09-16 02:18:00,59.2,57.0,29.98,SSW,203,3.0,-999.0,91,-99.99,,,0.00,weatherlink.com 1.10,2013-09-16 06:18:00,
2013-09-16 02:33:00,59.5,57.0,29.98,SSW,193,5.0,-999.0,91,-99.99,,,0.00,weatherlink.com 1.10,2013-09-16 06:33:00,
2013-09-16 02:48:00,59.6,57.0,29.98,SSW,198,3.0,-999.0,91,-99.99,,,0.00,weatherlink.com 1.10,2013-09-16 06:48:00,
2013-09-16 03:03:00,59.2,57.0,29.97,SSW,198,0.0,-999.0,91,-99.99,,,0.00,weatherlink.com 1.10,2013-09-16 07:03:00,
2013-09-16 03:18:00,58.7,56.0,29.98,SSW,198,0.0,-999.0,92,-99.99,,,0.00,weatherlink.com 1.10,2013-09-16 07:18:00,
2013-09-16 03:33:00,58.5,56.0,29.97,SSW,198,0.0,-999.0,92,-99.99,,,0.00,weatherlink.com 1.10,2013-09-16 07:33:00,
2013-09-16 03:48:00,58.2,56.0,29.97,SSW,198,3.0,-999.0,93,-99.99,,,0.00,weatherlink.com 1.10,2013-09-16 07:48:00,
2013-09-16 04:03:00,58.4,57.0,29.96,SSW,198,2.0,-999.0,94,-99.99,,,0.00,weatherlink.com 1.10,2013-09-16 08:03:00,
2013-09-16 04:18:00,58.6,57.0,29.96,SSW,198,2.0,-999.0,94,-99.99,,,0.00,weatherlink.com 1.10,2013-09-16 08:18:00,
2013-09-16 04:33:00,58.7,57.0,29.96,SSW,197,3.0,-999.0,94,-99.99,,,0.00,weatherlink.com 1.10,2013-09-16 08:33:00,
2013-09-16 04:48:00,58.7,57.0,29.95,SSW,197,0.0,-999.0,94,-99.99,,,0.00,weatherlink.com 1.10,2013-09-16 08:48:00,
2013-09-16 05:03:00,58.6,57.0,29.95,SSW,197,0.0,-999.0,94,-99.99,,,0.00,weatherlink.com 1.10,2013-09-16 09:03:00,
2013-09-16 05:18:00,58.6,57.0,29.95,SSW,197,1.0,-999.0,94,-99.99,,,0.00,weatherlink.com 1.10,2013-09-16 09:18:00,
2013-09-16 05:33:00,59.2,58.0,29.95,SSW,204,2.0,-999.0,95,-99.99,,,0.00,weatherlink.com 1.10,2013-09-16 09:33:00,
2013-09-16 05:48:00,59.5,58.0,29.95,SSW,204,0.0,-999.0,94,-99.99,,,0.00,weatherlink.com 1.10,2013-09-16 09:48:00,
2013-09-16 06:03:00,59.9,58.0,29.95,SSW,203,3.0,-999.0,94,-99.99,,,0.00,weatherlink.com 1.10,2013-09-16 10:03:00,
2013-09-16 06:18:00,60.3,59.0,29.96,SSW,194,0.0,-999.0,94,-99.99,,,0.00,weatherlink.com 1.10,2013-09-16 10:18:00,
2013-09-16 06:33:00,60.3,59.0,29.96,SSW,194,2.0,-999.0,94,-99.99,,,0.00,weatherlink.com 1.10,2013-09-16 10:33:00,
2013-09-16 06:48:00,60.4,59.0,29.96,SSW,194,2.0,-999.0,94,-99.99,,,0.00,weatherlink.com 1.10,2013-09-16 10:48:00,
2013-09-16 07:03:00,60.5,59.0,29.96,SW,224,0.0,-999.0,94,-99.99,,,0.00,weatherlink.com 1.10,2013-09-16 11:03:00,
2013-09-16 07:18:00,60.5,59.0,29.96,SW,224,0.0,-999.0,94,-99.99,,,0.00,weatherlink.com 1.10,2013-09-16 11:18:00,
2013-09-16 07:33:00,60.9,60.0,29.96,SW,223,0.0,-999.0,95,-99.99,,,0.00,weatherlink.com 1.10,2013-09-16 11:33:00,
2013-09-16 07:48:00,61.5,60.0,29.97,SW,230,0.0,-999.0,94,-99.99,,,0.00,weatherlink.com 1.10,2013-09-16 11:48:00,
2013-09-16 08:03:00,61.7,60.0,29.97,SW,230,3.0,-999.0,94,-99.99,,,0.00,weatherlink.com 1.10,2013-09-16 12:03:00,
2013-09-16 08:18:00,61.8,60.0,29.97,SW,230,0.0,-999.0,93,-99.99,,,0.00,weatherlink.com 1.10,2013-09-16 12:18:00,
2013-09-16 08:33:00,62.3,61.0,29.96,SSW,211,2.0,-999.0,94,-99.99,,,0.00,weatherlink.com 1.10,2013-09-16 12:33:00,
2013-09-16 08:48:00,62.6,61.0,29.97,SW,235,2.0,-999.0,93,-99.99,,,0.00,weatherlink.com 1.10,2013-09-16 12:48:00,
2013-09-16 09:03:00,62.8,61.0,29.96,West,263,3.0,-999.0,92,-99.99,,,0.00,weatherlink.com 1.10,2013-09-16 13:03:00,
2013-09-16 09:18:00,62.8,61.0,29.98,West,271,11.0,-999.0,92,-99.99,,,0.00,weatherlink.com 1.10,2013-09-16 13:18:00,
2013-09-16 09:33:00,62.5,60.0,29.98,NNW,341,0.0,-999.0,91,-99.99,,,0.00,weatherlink.com 1.10,2013-09-16 13:33:00,
2013-09-16 09:48:00,62.0,59.0,29.99,WNW,290,4.0,-999.0,91,-99.99,,,0.00,weatherlink.com 1.10,2013-09-16 13:48:00,
2013-09-16 10:03:00,61.7,59.0,29.99,NNW,338,6.0,-999.0,92,-99.99,,,0.00,weatherlink.com 1.10,2013-09-16 14:03:00,
2013-09-16 10:18:00,61.3,59.0,29.99,NNW,348,5.0,-999.0,93,-99.99,,,0.00,weatherlink.com 1.10,2013-09-16 14:18:00,
2013-09-16 10:33:00,61.0,59.0,29.99,NW,325,7.0,-999.0,93,-99.99,,,0.02,weatherlink.com 1.10,2013-09-16 14:33:00,
2013-09-16 10:48:00,60.9,60.0,29.99,NNW,348,2.0,-999.0,95,-99.99,,,0.03,weatherlink.com 1.10,2013-09-16 14:48:00,
2013-09-16 11:04:00,60.9,60.0,29.99,NW,318,0.0,-999.0,95,-99.99,,,0.04,weatherlink.com 1.10,2013-09-16 15:04:00,
2013-09-16 11:18:00,60.9,60.0,29.98,NNW,335,5.0,-999.0,95,-99.99,,,0.04,weatherlink.com 1.10,2013-09-16 15:18:00,
2013-09-16 11:33:00,60.9,60.0,30.00,NNW,344,2.0,-999.0,95,-99.99,,,0.04,weatherlink.com 1.10,2013-09-16 15:33:00,
2013-09-16 11:48:00,60.9,60.0,29.99,NNW,344,0.0,-999.0,95,-99.99,,,0.05,weatherlink.com 1.10,2013-09-16 15:48:00,
2013-09-16 12:33:00,61.7,61.0,29.99,NNW,344,0.0,-999.0,96,-99.99,,,0.06,weatherlink.com 1.10,2013-09-16 16:33:00,
2013-09-16 12:48:00,62.1,61.0,29.99,NNW,344,0.0,-999.0,95,-99.99,,,0.06,weatherlink.com 1.10,2013-09-16 16:48:00,
2013-09-16 13:03:00,62.5,61.0,29.98,NNW,344,0.0,-999.0,93,-99.99,,,0.06,weatherlink.com 1.10,2013-09-16 17:03:00,
2013-09-16 13:18:00,63.1,61.0,29.99,NNW,342,0.0,-999.0,91,-99.99,,,0.06,weatherlink.com 1.10,2013-09-16 17:18:00,
2013-09-16 13:33:00,63.5,60.0,29.99,NNW,346,4.0,-999.0,89,-99.99,,,0.06,weatherlink.com 1.10,2013-09-16 17:33:00,
2013-09-16 13:48:00,63.6,59.0,29.99,WNW,296,0.0,-999.0,86,-99.99,,,0.06,weatherlink.com 1.10,2013-09-16 17:48:00,
2013-09-16 14:03:00,63.9,60.0,29.99,WNW,298,4.0,-999.0,87,-99.99,,,0.06,weatherlink.com 1.10,2013-09-16 18:03:00,
2013-09-16 14:18:00,63.5,58.0,29.98,NW,307,4.0,-999.0,83,-99.99,,,0.06,weatherlink.com 1.10,2013-09-16 18:18:00,
2013-09-16 14:33:00,63.1,57.0,29.98,NW,307,0.0,-999.0,81,-99.99,,,0.06,weatherlink.com 1.10,2013-09-16 18:33:00,
2013-09-16 14:48:00,64.0,57.0,29.98,NW,316,4.0,-999.0,78,-99.99,,,0.06,weatherlink.com 1.10,2013-09-16 18:48:00,
2013-09-16 15:03:00,65.0,57.0,29.97,NW,319,0.0,-999.0,74,-99.99,,,0.06,weatherlink.com 1.10,2013-09-16 19:03:00,
2013-09-16 15:18:00,66.0,55.0,29.97,WNW,300,0.0,-999.0,68,-99.99,,,0.06,weatherlink.com 1.10,2013-09-16 19:18:00,
2013-09-16 15:33:00,67.1,57.0,29.97,NW,315,0.0,-999.0,70,-99.99,,,0.06,weatherlink.com 1.10,2013-09-16 19:33:00,
2013-09-16 15:48:00,67.6,58.0,29.97,West,262,2.0,-999.0,72,-99.99,,,0.06,weatherlink.com 1.10,2013-09-16 19:48:00,
2013-09-16 16:03:00,68.2,60.0,29.96,West,263,0.0,-999.0,74,-99.99,,,0.06,weatherlink.com 1.10,2013-09-16 20:03:00,
2013-09-16 16:18:00,68.9,59.0,29.97,West,264,2.0,-999.0,71,-99.99,,,0.06,weatherlink.com 1.10,2013-09-16 20:18:00,
2013-09-16 16:33:00,69.4,59.0,29.97,West,265,0.0,-999.0,70,-99.99,,,0.06,weatherlink.com 1.10,2013-09-16 20:33:00,
2013-09-16 16:48:00,69.1,60.0,29.97,West,265,0.0,-999.0,73,-99.99,,,0.06,weatherlink.com 1.10,2013-09-16 20:48:00,
2013-09-16 17:03:00,68.9,60.0,29.97,West,265,0.0,-999.0,73,-99.99,,,0.06,weatherlink.com 1.10,2013-09-16 21:03:00,
2013-09-16 17:18:00,68.8,60.0,29.97,West,265,0.0,-999.0,74,-99.99,,,0.06,weatherlink.com 1.10,2013-09-16 21:18:00,
2013-09-16 17:33:00,69.1,61.0,29.98,West,265,0.0,-999.0,74,-99.99,,,0.06,weatherlink.com 1.10,2013-09-16 21:33:00,
2013-09-16 17:48:00,68.9,61.0,29.98,West,265,0.0,-999.0,76,-99.99,,,0.06,weatherlink.com 1.10,2013-09-16 21:48:00,
2013-09-16 18:03:00,68.4,61.0,29.99,West,265,0.0,-999.0,78,-99.99,,,0.06,weatherlink.com 1.10,2013-09-16 22:03:00,
2013-09-16 18:18:00,68.1,61.0,29.99,West,265,0.0,-999.0,78,-99.99,,,0.06,weatherlink.com 1.10,2013-09-16 22:18:00,
2013-09-16 18:33:00,67.7,60.0,29.99,West,265,0.0,-999.0,77,-99.99,,,0.06,weatherlink.com 1.10,2013-09-16 22:33:00,
2013-09-16 18:48:00,67.3,60.0,30.00,West,265,1.0,-999.0,78,-99.99,,,0.06,weatherlink.com 1.10,2013-09-16 22:48:00,
2013-09-16 19:03:00,66.5,60.0,30.00,West,265,0.0,-999.0,79,-99.99,,,0.06,weatherlink.com 1.10,2013-09-16 23:03:00,
2013-09-16 19:18:00,65.7,59.0,30.00,West,265,1.0,-999.0,79,-99.99,,,0.06,weatherlink.com 1.10,2013-09-16 23:18:00,
2013-09-16 19:33:00,64.7,58.0,30.01,West,265,0.0,-999.0,79,-99.99,,,0.06,weatherlink.com 1.10,2013-09-16 23:33:00,
2013-09-16 19:48:00,63.9,58.0,30.02,West,265,0.0,-999.0,81,-99.99,,,0.06,weatherlink.com 1.10,2013-09-16 23:48:00,
2013-09-16 20:03:00,62.9,57.0,30.03,West,265,0.0,-999.0,82,-99.99,,,0.06,weatherlink.com 1.10,2013-09-17 00:03:00,
2013-09-16 20:18:00,62.3,56.0,30.03,West,265,0.0,-999.0,80,-99.99,,,0.06,weatherlink.com 1.10,2013-09-17 00:18:00,
2013-09-16 20:33:00,62.0,56.0,30.05,West,265,0.0,-999.0,80,-99.99,,,0.06,weatherlink.com 1.10,2013-09-17 00:33:00,
2013-09-16 20:48:00,61.4,56.0,30.05,West,265,0.0,-999.0,81,-99.99,,,0.06,weatherlink.com 1.10,2013-09-17 00:48:00,
2013-09-16 21:03:00,61.1,55.0,30.05,West,265,0.0,-999.0,81,-99.99,,,0.06,weatherlink.com 1.10,2013-09-17 01:03:00,
2013-09-16 21:18:00,60.9,55.0,30.06,West,265,0.0,-999.0,81,-99.99,,,0.06,weatherlink.com 1.10,2013-09-17 01:18:00,
2013-09-16 21:33:00,60.5,55.0,30.07,West,265,0.0,-999.0,82,-99.99,,,0.06,weatherlink.com 1.10,2013-09-17 01:33:00,
2013-09-16 21:48:00,60.4,55.0,30.07,West,265,1.0,-999.0,83,-99.99,,,0.06,weatherlink.com 1.10,2013-09-17 01:48:00,
2013-09-16 22:03:00,60.7,55.0,30.08,West,267,2.0,-999.0,82,-99.99,,,0.06,weatherlink.com 1.10,2013-09-17 02:03:00,
2013-09-16 22:18:00,60.6,55.0,30.08,West,268,0.0,-999.0,81,-99.99,,,0.06,weatherlink.com 1.10,2013-09-17 02:18:00,
2013-09-16 22:33:00,60.6,55.0,30.09,NW,323,5.0,-999.0,81,-99.99,,,0.06,weatherlink.com 1.10,2013-09-17 02:33:00,
2013-09-16 22:48:00,60.7,55.0,30.10,NNW,345,0.0,-999.0,80,-99.99,,,0.06,weatherlink.com 1.10,2013-09-17 02:48:00,
2013-09-16 23:03:00,60.9,54.0,30.10,North,11,3.0,-999.0,78,-99.99,,,0.06,weatherlink.com 1.10,2013-09-17 03:03:00,
2013-09-16 23:18:00,61.1,54.0,30.11,NNW,327,6.0,-999.0,77,-99.99,,,0.06,weatherlink.com 1.10,2013-09-17 03:18:00,
2013-09-16 23:33:00,60.9,53.0,30.11,NW,325,5.0,-999.0,76,-99.99,,,0.06,weatherlink.com 1.10,2013-09-17 03:33:00,
2013-09-16 23:48:00,60.4,53.0,30.11,WNW,296,1.0,-999.0,77,-99.99,,,0.06,weatherlink.com 1.10,2013-09-17 03:48:00,